MST,Max TemperatureF,Mean TemperatureF,Min TemperatureF,Max Dew PointF,MeanDew PointF,Min DewpointF,Max Humidity, Mean Humidity, Min Humidity, Max Sea Level PressureIn, Mean Sea Level PressureIn, Min Sea Level PressureIn, Max VisibilityMiles, Mean VisibilityMiles, Min VisibilityMiles, Max Wind SpeedMPH, Mean Wind SpeedMPH, Max Gust SpeedMPH,PrecipitationIn, CloudCover, Events, WindDirDegrees
2012-12-1,77,62,46,37,35,29,65,42,19,30.11,30.05,29.98,10,10,10,13,5,20,0.00,0,,146
2012-12-2,78,62,46,31,27,22,47,30,12,30.08,30.03,29.96,10,10,10,12,6,15,0.00,0,,158
2012-12-3,74,60,46,38,33,27,47,35,23,30.20,30.08,30.00,10,10,10,12,5,18,0.00,0,,171
2012-12-4,79,63,46,38,36,33,61,40,19,30.22,30.14,30.07,10,10,10,10,5,15,0.00,0,,133
2012-12-5,81,65,48,35,31,26,54,34,14,30.11,30.01,29.92,10,10,10,14,5,16,0.00,0,,160
2012-12-6,78,64,49,32,30,27,42,30,18,29.94,29.87,29.78,10,10,10,14,6,16,0.00,0,,162
2012-12-7,75,61,47,36,30,23,50,37,23,29.92,29.87,29.82,10,10,10,13,5,16,0.00,0,,160
2012-12-8,72,59,46,36,32,28,60,41,22,29.96,29.90,29.84,10,10,10,13,5,16,0.00,0,,182
2012-12-9,70,56,42,31,23,15,53,33,12,30.08,29.98,29.92,10,10,10,17,7,23,0.00,0,,222
2012-12-10,62,50,38,20,13,5,39,26,12,30.10,30.04,29.98,10,10,10,12,4,15,0.00,0,,356
2012-12-11,67,50,32,13,9,5,35,23,10,30.08,30.03,29.95,10,10,10,12,5,15,0.00,0,,132
2012-12-12,73,56,39,24,16,8,28,21,14,30.04,29.97,29.88,10,10,10,14,7,18,0.00,0,,142
2012-12-13,69,54,39,52,35,20,93,58,22,29.95,29.84,29.68,10,9,2,32,9,39,0.45,4,Rain,165
2012-12-14,55,49,42,50,41,38,89,72,54,30.04,29.91,29.67,10,9,2,22,10,29,0.19,7,Rain,191
2012-12-15,57,53,48,45,42,38,77,66,55,30.04,29.97,29.92,10,10,10,20,9,29,T,7,,188
2012-12-16,55,48,40,46,40,31,100,71,41,30.17,30.07,29.99,10,9,3,13,5,17,0.19,5,Rain,320
2012-12-17,61,49,37,40,36,34,92,66,39,30.19,30.09,29.98,10,10,10,10,4,15,0.00,0,,137
2012-12-18,68,53,38,46,40,35,92,62,32,29.96,29.84,29.72,10,10,10,16,7,26,0.00,0,,164
2012-12-19,58,47,36,45,34,26,89,66,42,30.31,30.05,29.72,10,9,2,24,8,36,0.10,3,Rain,292
2012-12-20,63,47,31,31,20,11,100,57,14,30.30,30.21,30.12,10,10,10,25,12,33,0.00,0,,120
2012-12-21,70,59,48,23,13,8,29,21,12,30.11,30.06,29.98,10,10,10,25,13,36,0.00,0,,113
2012-12-22,71,60,48,39,32,22,54,39,23,30.10,30.05,29.99,10,10,10,14,6,20,0.00,0,,165
2012-12-23,68,54,40,39,35,28,86,54,22,30.14,30.06,29.98,10,10,10,10,4,38,0.00,0,,161
2012-12-24,63,53,43,40,36,33,76,55,34,30.05,29.96,29.86,10,10,10,17,6,24,0.00,1,,229
2012-12-25,56,49,42,40,30,22,83,55,27,30.09,30.01,29.97,10,10,10,10,5,17,0.00,0,,280
2012-12-26,66,53,39,30,24,13,70,42,13,29.97,29.88,29.78,10,10,10,13,4,15,0.00,0,,201
2012-12-27,55,44,33,34,29,23,76,53,29,30.04,29.91,29.84,10,10,10,25,6,32,0.00,2,,206
2012-12-28,55,44,32,31,28,25,89,60,30,30.15,30.10,30.04,10,10,10,12,4,20,0.00,0,,148
2012-12-29,64,47,30,26,22,18,70,43,16,30.12,30.01,29.91,10,10,10,17,7,20,0.00,0,,154
2012-12-30,59,48,36,39,29,21,92,58,24,29.98,29.89,29.78,10,10,4,21,6,28,0.17,3,Rain,137
2012-12-31,50,42,34,39,34,26,100,71,42,30.21,30.10,29.96,10,10,7,14,4,28,0.08,5,Rain,252